Regional Weather Roundup
Issued by NWS

Home | Current Version | Previous Version | Text Only | Print | Product List | Glossary On
Versions: 1 2 3 4 5 6 7 8 9 10 11 12 13 14 15 16 17 18 19 20 21 22 23 24 25 26 27 28 29 30 31 32 33 34 35 36 37 38 39 40 41 42 43 44 45 46 47 48 49 50
000
ASUS43 KDTX 190801
RWRMI
MICHIGAN HOURLY REGIONAL WEATHER ROUNDUP
NATIONAL WEATHER SERVICE DETROIT/PONTIAC MI
400 AM EDT THU APR 19 2018

NOTE: "FAIR" INDICATES FEW OR NO CLOUDS BELOW 12,000 FEET WITH NO
SIGNIFICANT WEATHER AND/OR OBSTRUCTION TO VISIBILITY.

MIZ047>049-052>055-059>063-066>070-074>076-081>083-190900-
SOUTHEAST LOWER MICHIGAN

CITY           SKY/WX    TMP DP  RH WIND       PRES   REMARKS
ADRIAN         CLOUDY    33  29  85 N9        29.91R WCI  25
ALMA           FAIR      32  28  84 NW5       29.96R WCI  27
ANN ARBOR      CLOUDY    34  27  75 NW9       29.89R WCI  27
BAD AXE        CLOUDY    37  26  66 N10G17    29.90S WCI  29
CARO           FAIR      32  27  83 N6        29.90R WCI  26
DETROIT CITY   CLOUDY    34  27  75 N10       29.87R WCI  26
DETROIT        CLOUDY    35  25  66 N10       29.88R WCI  27
FLINT          CLOUDY    34  26  72 N7        29.91R WCI  28
GROSSE ILE     CLOUDY    35  27  74 N8        29.87R WCI  28
HILLSDALE      CLOUDY    32  28  86 N8        29.90R WCI  25
HOWELL         CLOUDY    32  30  91 N6        29.89R WCI  27

CITY           SKY/WX    TMP DP  RH WIND       PRES   REMARKS
JACKSON        CLOUDY    32  30  92 NW6       29.91R WCI  26
LAMBERTVILLE   CLOUDY    35  29  78 N6        29.90R WCI  30
LANSING        CLOUDY    33  29  85 NW6       29.94R WCI  28
LAPEER         CLOUDY    33  26  74 N5        29.89R WCI  29
MASON          CLOUDY    34  29  83 NW7       29.92R WCI  28
MONROE         CLOUDY    34  27  75 N6        29.88R WCI  29
PONTIAC        CLOUDY    32  29  88 NW8       29.86S WCI  25
PORT HOPE        N/A     35  29  78 N13       29.87R WCI  26
PORT HURON     CLOUDY    34  25  69 N8        29.86F WCI  27
TRI CITIES     FAIR      32  26  78 N8        29.94R WCI  25
MIDLAND        NOT AVBL
TROY           CLOUDY    34  29  83 NW6       29.89R WCI  29
SAGINAW HB     FAIR      32  28  86 N6        29.93R WCI  26
$$
MIZ043>046-050>051-056>058-064>065-071>073-077>080-190900-
SOUTHWEST LOWER MICHIGAN

CITY           SKY/WX    TMP DP  RH WIND       PRES   REMARKS
BATTLE CREEK   CLOUDY    33  31  92 NW7       29.95R WCI  27
BENTON HARBOR  CLOUDY    35  31  85 VRB5      30.00R WCI  31
BIG RAPIDS     FAIR      32  24  73 NW5       29.96R WCI  27
COLDWATER      CLOUDY    33  31  96 N7        29.93R FOG     WCI  26
FREMONT        FAIR      29  24  82 CALM      29.99R
HOLLAND        MOCLDY    34  30  85 N6        30.00R WCI  29
GRAND RAPIDS   CLOUDY    34  30  85 NW8       29.98R WCI  27
IONIA          CLOUDY    32  31  94 NW5       29.95R WCI  28
KALAMAZOO      CLOUDY    34  31  88 N7        29.96R WCI  28
LUDINGTON      FAIR      32  27  81 N5        30.02R WCI  27
MARSHALL       CLOUDY    32  31  98 NW5       29.93R WCI  27
MOUNT PLEASANT FAIR      33  27  76 CALM      29.95R
MUSKEGON       FAIR      31  27  85 N7        30.01R WCI  24
SOUTH HAVEN    CLOUDY    34  32  92 N5        30.00R WCI  30
$$
MIZ016>042-190900-
NORTHERN LOWER MICHIGAN

CITY           SKY/WX    TMP DP  RH WIND       PRES   REMARKS
ALPENA         FAIR      32  22  66 N15       29.98R WCI  22
BEAVER ISLAND  FAIR      33  22  62 N6        30.07R WCI  28
BELLAIRE       FAIR      25  23  93 CALM      30.03R
CADILLAC       FAIR      30  26  85 N8        29.97R WCI  22
CHARLEVOIX     FAIR      33  27  79 N10       30.07R WCI  25
FRANKFORT      FAIR      36  24  61 N7        30.05R WCI  31
GAYLORD        FAIR      29  20  69 N6        29.98R WCI  23
GRAYLING       FAIR      29  21  71 N7        29.97R WCI  22
HARBOR SPRINGS FAIR      32  20  62 N9        30.02R WCI  24
HOUGHTON LAKE  FAIR      32  23  69 N13       29.96R WCI  22
MANISTEE       FAIR      35  23  61 VRB6      30.03R WCI  30
OSCODA         FAIR      33  22  64 N10       29.93S WCI  25
PELLSTON       FAIR      30  20  66 N12       30.03R WCI  20
ROGERS CITY    FAIR      32  24  73 N8        30.00R WCI  25
TRAVERSE CITY  FAIR      35  26  69 N8        30.03R WCI  29
$$
MIZ007>008-015-190900-
EASTERN UPPER MICHIGAN

CITY           SKY/WX    TMP DP  RH WIND       PRES   REMARKS
KINROSS        FAIR      28  19  69 NW9       30.03R WCI  19
MACKINAC ISLAN FAIR      31  22  70 N13       30.02R WCI  21
NEWBERRY       FAIR      30  23  77 NW8       30.07R WCI  22
S. S. MARIE    FAIR      32  17  54 W6        30.03R WCI  26
MUNISING         N/A     29  22  75 N16       30.13R WCI  17
$$
MIZ004>006-011>014-085-190900-
CENTRAL UPPER MICHIGAN

CITY           SKY/WX    TMP DP  RH WIND       PRES   REMARKS
MANISTIQUE     FAIR      31  22  70 N9        30.08S WCI  23
ESCANABA       FAIR      32  22  66 NW6       30.12R WCI  26
MENOMINEE      FAIR      32  20  61 N10       30.12R WCI  24
$$
MIZ001>003-009>011-084-190900-
WESTERN UPPER MICHIGAN

CITY           SKY/WX    TMP DP  RH WIND       PRES   REMARKS
IRON MOUNTAIN  FAIR      24  16  71 NW7       30.12R WCI  16
HOUGHTON       FAIR      31  19  61 N6        30.19R WCI  25
COPPER HARBOR    N/A     29  24  82 NE3       30.20S
IRONWOOD       FAIR      16  14  92 W3        30.24R
$$

ABBREVIATIONS USED IN REMARKS
   TC - TEMPERATURE IN CELSIUS
  WCI - WIND CHILL INDEX
   HX - HEAT INDEX
  VSB - VISIBILITY





USA.gov is the U.S. government's official web portal to all federal, state and local government web resources and services.